星链-11551 (STARLINK-11551)

导读

STARLINK-11551是美国SpaceX公司星链(Starlink)星座中的卫星,于2025年1月27日发射入轨,归属于美国。星链计划旨在构建全球卫星互联网星座,为全球偏远地区、海洋空域等提供高速低延迟的宽带互联网接入服务,该卫星承担着扩充星座网络覆盖、提升服务容量的作用。

基本信息
目录编号:
62840
目录名称:
STARLINK-11551
国际标识:
2025-019M
轨道中心:
EARTH
卫星名称:
星链-11551
卫星全名:
星链-11551 (STARLINK-11551)
卫星状态:
在轨 (已飞行592 天)
发射日期:
2025-01-27 UTC
国别 :
美国 (US)
星等 :
--
轨道信息
数据来源 国际轨道数据
星历时间: 2026-09-10T02:38:21+0800
1天前
查看轨道信息
半长轴: 6734.376km
偏心率: 0.0001988
轨道倾角: 43.000°
近地点辐角 296.766°
升交点赤经 276.294°
平近点角 63.300°
近地点: 354.9km
远地点: 357.578km
周期: 91.665分钟
每日圈数: 15.709299
详细信息
固有亮度:
5
最大亮度:
2.5
卫星平台:
Starlink V1.0
覆盖范围:
全球
运营商:
太空探索技术公司
运营商所在国:
美国
制造商(研发单位):
太空探索技术公司
制造商所在国:
美国
使用方式:
暂无
卫星简介
Starlink 计划是 SpaceX 推出的全球卫星互联网项目,通过发射低轨道卫星,为全球尤其是偏远地区提供高速、低延迟的互联网服务。自 2019 年起,Starlink 已部署数千颗卫星,旨在缩小全球数字鸿沟,推动互联网普及。该项目还为军事、航空等行业提供通信支持,带来广泛经济效益。
2D轨道图
3D轨道图
轨道高度分析图
轨道倾角分析图
轨道综合分析图
查看轨道综合分析图
交会数据列表
事件ID 空间交会对象 最接近时刻(TCA) 交会距离 交会风险概率(CRP) 交会风险指数(CRI) 操作
CDM_260912-132404-537606-284021
2026-09-12T
13:24:10+0000
1.111 km
极远距离
9.455559E-6 低风险 0.55
与全量物体交会距离演化趋势
与全量物体交会风险概率演化趋势